Year,Month,Day,Hour,Minute,Value (Times are PST for temperature in C)
2009,07,06,00,00,15.70
2009,07,06,00,01,15.70
2009,07,06,00,02,15.70
2009,07,06,00,03,15.70
2009,07,06,00,04,15.70
2009,07,06,00,05,15.60
2009,07,06,00,06,15.60
2009,07,06,00,07,15.50
2009,07,06,00,08,15.40
2009,07,06,00,09,15.40
2009,07,06,00,10,15.40
2009,07,06,00,11,15.40
2009,07,06,00,12,15.30
2009,07,06,00,13,15.30
2009,07,06,00,14,15.30
2009,07,06,00,15,15.30
2009,07,06,00,16,15.20
2009,07,06,00,17,15.20
2009,07,06,00,18,15.10
2009,07,06,00,19,15.10
2009,07,06,00,20,15.00
2009,07,06,00,21,15.00
2009,07,06,00,22,15.00
2009,07,06,00,23,15.00
2009,07,06,00,24,15.00
2009,07,06,00,25,15.00
2009,07,06,00,26,15.00
2009,07,06,00,27,15.00
2009,07,06,00,28,15.00
2009,07,06,00,29,15.00
2009,07,06,00,30,15.00
2009,07,06,00,31,15.00
2009,07,06,00,32,15.00
2009,07,06,00,33,15.00
2009,07,06,00,34,15.00
2009,07,06,00,35,15.00
2009,07,06,00,36,15.00
2009,07,06,00,37,15.00
2009,07,06,00,38,15.00
2009,07,06,00,39,14.90
2009,07,06,00,40,14.90
2009,07,06,00,41,14.90
2009,07,06,00,42,14.90
2009,07,06,00,43,14.90
2009,07,06,00,44,14.90
2009,07,06,00,45,14.90
2009,07,06,00,46,14.90
2009,07,06,00,47,14.80
2009,07,06,00,48,14.80
2009,07,06,00,49,14.80
2009,07,06,00,50,14.80
2009,07,06,00,51,14.80
2009,07,06,00,52,14.80
2009,07,06,00,53,14.80
2009,07,06,00,54,14.80
2009,07,06,00,55,14.80
2009,07,06,00,56,14.80
2009,07,06,00,57,14.90
2009,07,06,00,58,14.90
2009,07,06,00,59,14.90
2009,07,06,01,00,14.90
2009,07,06,01,01,14.90
2009,07,06,01,02,14.80
2009,07,06,01,03,14.80
2009,07,06,01,04,14.80
2009,07,06,01,05,14.80
2009,07,06,01,06,14.70
2009,07,06,01,07,14.70
2009,07,06,01,08,14.70
2009,07,06,01,09,14.70
2009,07,06,01,10,14.70
2009,07,06,01,11,14.70
2009,07,06,01,12,14.70
2009,07,06,01,13,14.60
2009,07,06,01,14,14.60
2009,07,06,01,15,14.60
2009,07,06,01,16,14.60
2009,07,06,01,17,14.60
2009,07,06,01,18,14.50
2009,07,06,01,19,14.50
2009,07,06,01,20,14.50
2009,07,06,01,21,14.40
2009,07,06,01,22,14.40
2009,07,06,01,23,14.40
2009,07,06,01,24,14.40
2009,07,06,01,25,14.40
2009,07,06,01,26,14.40
2009,07,06,01,27,14.40
2009,07,06,01,28,14.40
2009,07,06,01,29,14.50
2009,07,06,01,30,14.50
2009,07,06,01,31,14.60
2009,07,06,01,32,14.70
2009,07,06,01,33,14.70
2009,07,06,01,34,14.80
2009,07,06,01,35,14.80
2009,07,06,01,36,14.80
2009,07,06,01,37,14.80
2009,07,06,01,38,14.80
2009,07,06,01,39,14.80
2009,07,06,01,40,14.80
2009,07,06,01,41,14.80
2009,07,06,01,42,14.80
2009,07,06,01,43,14.80
2009,07,06,01,44,14.80
2009,07,06,01,45,14.80
2009,07,06,01,46,14.70
2009,07,06,01,47,14.70
2009,07,06,01,48,14.70
2009,07,06,01,49,14.70
2009,07,06,01,50,14.60
2009,07,06,01,51,14.60
2009,07,06,01,52,14.60
2009,07,06,01,53,14.60
2009,07,06,01,54,14.50
2009,07,06,01,55,14.50
2009,07,06,01,56,14.50
2009,07,06,01,57,14.50
2009,07,06,01,58,14.50
2009,07,06,01,59,14.50
2009,07,06,02,00,14.60
2009,07,06,02,01,14.60
2009,07,06,02,02,14.60
2009,07,06,02,03,14.60
2009,07,06,02,04,14.60
2009,07,06,02,05,14.70
2009,07,06,02,06,14.70
2009,07,06,02,07,14.70
2009,07,06,02,08,14.60
2009,07,06,02,09,14.60
2009,07,06,02,10,14.60
2009,07,06,02,11,14.60
2009,07,06,02,12,14.60
2009,07,06,02,13,14.50
2009,07,06,02,14,14.50
2009,07,06,02,15,14.50
2009,07,06,02,16,14.50
2009,07,06,02,17,14.40
2009,07,06,02,18,14.40
2009,07,06,02,19,14.40
2009,07,06,02,20,14.40
2009,07,06,02,21,14.40
2009,07,06,02,22,14.40
2009,07,06,02,23,14.40
2009,07,06,02,24,14.30
2009,07,06,02,25,14.30
2009,07,06,02,26,14.30
2009,07,06,02,27,14.30
2009,07,06,02,28,14.30
2009,07,06,02,29,14.40
2009,07,06,02,30,14.40
2009,07,06,02,31,14.30
2009,07,06,02,32,14.30
2009,07,06,02,33,14.30
2009,07,06,02,34,14.30
2009,07,06,02,35,14.30
2009,07,06,02,36,14.30
2009,07,06,02,37,14.30
2009,07,06,02,38,14.30
2009,07,06,02,39,14.20
2009,07,06,02,40,14.20
2009,07,06,02,41,14.20
2009,07,06,02,42,14.30
2009,07,06,02,43,14.30
2009,07,06,02,44,14.30
2009,07,06,02,45,14.30
2009,07,06,02,46,14.30
2009,07,06,02,47,14.30
2009,07,06,02,48,14.30
2009,07,06,02,49,14.30
2009,07,06,02,50,14.40
2009,07,06,02,51,14.40
2009,07,06,02,52,14.40
2009,07,06,02,53,14.40
2009,07,06,02,54,14.40
2009,07,06,02,55,14.40
2009,07,06,02,56,14.40
2009,07,06,02,57,14.30
2009,07,06,02,58,14.30
2009,07,06,02,59,14.30
2009,07,06,03,00,14.30
2009,07,06,03,01,14.30
2009,07,06,03,02,14.30
2009,07,06,03,03,14.30
2009,07,06,03,04,14.30
2009,07,06,03,05,14.30
2009,07,06,03,06,14.30
2009,07,06,03,07,14.30
2009,07,06,03,08,14.30
2009,07,06,03,09,14.30
2009,07,06,03,10,14.30
2009,07,06,03,11,14.30
2009,07,06,03,12,14.30
2009,07,06,03,13,14.30
2009,07,06,03,14,14.20
2009,07,06,03,15,14.20
2009,07,06,03,16,14.20
2009,07,06,03,17,14.20
2009,07,06,03,18,14.20
2009,07,06,03,19,14.20
2009,07,06,03,20,14.20
2009,07,06,03,21,14.20
2009,07,06,03,22,14.20
2009,07,06,03,23,14.20
2009,07,06,03,24,14.20
2009,07,06,03,25,14.20
2009,07,06,03,26,14.20
2009,07,06,03,27,14.20
2009,07,06,03,28,14.20
2009,07,06,03,29,14.10
2009,07,06,03,30,14.10
2009,07,06,03,31,14.00
2009,07,06,03,32,13.90
2009,07,06,03,33,13.90
2009,07,06,03,34,13.80
2009,07,06,03,35,13.70
2009,07,06,03,36,13.70
2009,07,06,03,37,13.60
2009,07,06,03,38,13.50
2009,07,06,03,39,13.40
2009,07,06,03,40,13.40
2009,07,06,03,41,13.30
2009,07,06,03,42,13.30
2009,07,06,03,43,13.20
2009,07,06,03,44,13.20
2009,07,06,03,45,13.20
2009,07,06,03,46,13.10
2009,07,06,03,47,13.10
2009,07,06,03,48,13.10
2009,07,06,03,49,13.00
2009,07,06,03,50,12.90
2009,07,06,03,51,12.90
2009,07,06,03,52,12.90
2009,07,06,03,53,12.80
2009,07,06,03,54,12.80
2009,07,06,03,55,12.80
2009,07,06,03,56,12.80
2009,07,06,03,57,12.70
2009,07,06,03,58,12.70
2009,07,06,03,59,12.70
2009,07,06,04,00,12.70
2009,07,06,04,01,12.70
2009,07,06,04,02,12.70
2009,07,06,04,03,12.70
2009,07,06,04,04,12.70
2009,07,06,04,05,12.70
2009,07,06,04,18,12.50
2009,07,06,04,25,12.40
2009,07,06,04,26,12.40
2009,07,06,04,27,12.40
2009,07,06,04,28,12.40
2009,07,06,04,29,12.30
2009,07,06,04,30,12.30
2009,07,06,04,31,12.30
2009,07,06,04,32,12.30
2009,07,06,04,33,12.30
2009,07,06,04,34,12.30
2009,07,06,04,35,12.30
2009,07,06,04,36,12.30
2009,07,06,04,37,12.20
2009,07,06,04,38,12.20
2009,07,06,04,39,12.20
2009,07,06,04,40,12.20
2009,07,06,04,41,12.10
2009,07,06,04,42,12.10
2009,07,06,04,43,12.10
2009,07,06,04,44,12.00
2009,07,06,04,45,12.00
2009,07,06,04,46,11.90
2009,07,06,04,47,11.90
2009,07,06,04,48,11.90
2009,07,06,04,49,11.90
2009,07,06,04,50,11.80
2009,07,06,04,51,11.80
2009,07,06,04,52,11.80
2009,07,06,04,53,11.70
2009,07,06,04,54,11.70
2009,07,06,04,55,11.70
2009,07,06,04,56,11.60
2009,07,06,04,57,11.60
2009,07,06,04,58,11.60
2009,07,06,04,59,11.60
2009,07,06,05,00,11.50
2009,07,06,05,01,11.50
2009,07,06,05,02,11.40
2009,07,06,05,03,11.40
2009,07,06,05,04,11.40
2009,07,06,05,05,11.40
2009,07,06,05,06,11.30
2009,07,06,05,07,11.30
2009,07,06,05,08,11.30
2009,07,06,05,09,11.30
2009,07,06,05,10,11.30
2009,07,06,05,11,11.20
2009,07,06,05,12,11.20
2009,07,06,05,13,11.20
2009,07,06,05,14,11.10
2009,07,06,05,15,11.10
2009,07,06,05,16,11.10
2009,07,06,05,17,11.00
2009,07,06,05,18,11.00
2009,07,06,05,19,10.90
2009,07,06,05,20,10.90
2009,07,06,05,21,10.90
2009,07,06,05,22,10.90
2009,07,06,05,23,10.80
2009,07,06,05,24,10.80
2009,07,06,05,25,10.80
2009,07,06,05,26,10.80
2009,07,06,05,27,10.70
2009,07,06,05,28,10.70
2009,07,06,05,29,10.70
2009,07,06,05,30,10.70
2009,07,06,05,31,10.60
2009,07,06,05,32,10.60
2009,07,06,05,33,10.60
2009,07,06,05,34,10.60
2009,07,06,05,35,10.60
2009,07,06,05,36,10.50
2009,07,06,05,37,10.50
2009,07,06,05,38,10.50
2009,07,06,05,39,10.50
2009,07,06,05,40,10.50
2009,07,06,05,41,10.60
2009,07,06,05,42,10.60
2009,07,06,05,43,10.60
2009,07,06,05,44,10.60
2009,07,06,05,45,10.60
2009,07,06,05,46,10.60
2009,07,06,05,47,10.70
2009,07,06,05,48,10.70
2009,07,06,05,49,10.70
2009,07,06,05,50,10.70
2009,07,06,05,51,10.70
2009,07,06,05,52,10.70
2009,07,06,05,53,10.80
2009,07,06,05,54,10.80
2009,07,06,05,55,10.80
2009,07,06,05,56,10.80
2009,07,06,05,57,10.80
2009,07,06,05,58,10.80
2009,07,06,05,59,10.90
2009,07,06,06,00,10.90
2009,07,06,06,01,10.90
2009,07,06,06,02,10.90
2009,07,06,06,03,10.90
2009,07,06,06,04,10.90
2009,07,06,06,05,10.90
2009,07,06,06,06,10.90
2009,07,06,06,07,10.90
2009,07,06,06,08,10.90
2009,07,06,06,09,11.00
2009,07,06,06,10,11.00
2009,07,06,06,11,11.00
2009,07,06,06,12,11.00
2009,07,06,06,13,11.00
2009,07,06,06,14,11.00
2009,07,06,06,15,11.00
2009,07,06,06,16,11.00
2009,07,06,06,17,11.00
2009,07,06,06,18,11.00
2009,07,06,06,19,11.00
2009,07,06,06,20,11.00
2009,07,06,06,21,11.00
2009,07,06,06,22,11.10
2009,07,06,06,23,11.10
2009,07,06,06,24,11.10
2009,07,06,06,25,11.10
2009,07,06,06,26,11.10
2009,07,06,06,27,11.10
2009,07,06,06,28,11.10
2009,07,06,06,29,11.10
2009,07,06,06,30,11.10
2009,07,06,06,31,11.10
2009,07,06,06,32,11.10
2009,07,06,06,33,11.10
2009,07,06,06,34,11.20
2009,07,06,06,35,11.20
2009,07,06,06,36,11.20
2009,07,06,06,37,11.20
2009,07,06,06,38,11.20
2009,07,06,06,39,11.20
2009,07,06,06,40,11.20
2009,07,06,06,41,11.20
2009,07,06,06,42,11.20
2009,07,06,06,43,11.20
2009,07,06,06,44,11.20
2009,07,06,06,45,11.30
2009,07,06,06,46,11.30
2009,07,06,06,47,11.30
2009,07,06,06,48,11.30
2009,07,06,06,49,11.30
2009,07,06,06,50,11.30
2009,07,06,06,51,11.30
2009,07,06,06,52,11.30
2009,07,06,06,53,11.40
2009,07,06,06,54,11.40
2009,07,06,06,55,11.40
2009,07,06,06,56,11.40
2009,07,06,06,57,11.50
2009,07,06,06,58,11.50
2009,07,06,06,59,11.50
2009,07,06,07,00,11.50
2009,07,06,07,01,11.60
2009,07,06,07,02,11.60
2009,07,06,07,03,11.60
2009,07,06,07,04,11.60
2009,07,06,07,05,11.60
2009,07,06,07,06,11.70
2009,07,06,07,07,11.70
2009,07,06,07,08,11.70
2009,07,06,07,09,11.70
2009,07,06,07,10,11.80
2009,07,06,07,11,11.80
2009,07,06,07,12,11.80
2009,07,06,07,13,11.80
2009,07,06,07,14,11.80
2009,07,06,07,15,11.90
2009,07,06,07,16,11.90
2009,07,06,07,17,11.90
2009,07,06,07,18,11.90
2009,07,06,07,19,12.00
2009,07,06,07,20,12.00
2009,07,06,07,21,12.00
2009,07,06,07,22,12.10
2009,07,06,07,23,12.10
2009,07,06,07,24,12.10
2009,07,06,07,25,12.10
2009,07,06,07,26,12.10
2009,07,06,07,27,12.10
2009,07,06,07,28,12.20
2009,07,06,07,29,12.20
2009,07,06,07,30,12.20
2009,07,06,07,31,12.20
2009,07,06,07,32,12.20
2009,07,06,07,33,12.20
2009,07,06,07,34,12.20
2009,07,06,07,35,12.20
2009,07,06,07,36,12.20
2009,07,06,07,37,12.30
2009,07,06,07,38,12.30
2009,07,06,07,39,12.30
2009,07,06,07,40,12.30
2009,07,06,07,41,12.30
2009,07,06,07,42,12.30
2009,07,06,07,43,12.40
2009,07,06,07,44,12.40
2009,07,06,07,45,12.40
2009,07,06,07,46,12.40
2009,07,06,07,47,12.40
2009,07,06,07,48,12.50
2009,07,06,07,49,12.50
2009,07,06,07,50,12.50
2009,07,06,07,51,12.60
2009,07,06,07,52,12.60
2009,07,06,07,53,12.60
2009,07,06,07,54,12.60
2009,07,06,07,55,12.70
2009,07,06,07,56,12.70
2009,07,06,07,57,12.70
2009,07,06,07,58,12.70
2009,07,06,07,59,12.80
2009,07,06,08,00,12.80
2009,07,06,08,01,12.80
2009,07,06,08,02,12.80
2009,07,06,08,03,12.90
2009,07,06,08,04,12.90
2009,07,06,08,05,12.90
2009,07,06,08,06,12.90
2009,07,06,08,07,12.90
2009,07,06,08,08,13.00
2009,07,06,08,09,13.00
2009,07,06,08,10,13.00
2009,07,06,08,11,13.10
2009,07,06,08,12,13.10
2009,07,06,08,13,13.10
2009,07,06,08,14,13.10
2009,07,06,08,15,13.10
2009,07,06,08,16,13.10
2009,07,06,08,17,13.20
2009,07,06,08,18,13.20
2009,07,06,08,19,13.20
2009,07,06,08,20,13.20
2009,07,06,08,21,13.20
2009,07,06,08,22,13.20
2009,07,06,08,23,13.20
2009,07,06,08,24,13.20
2009,07,06,08,25,13.20
2009,07,06,08,26,13.20
2009,07,06,08,27,13.30
2009,07,06,08,28,13.30
2009,07,06,08,29,13.30
2009,07,06,08,30,13.30
2009,07,06,08,31,13.40
2009,07,06,08,32,13.40
2009,07,06,08,33,13.40
2009,07,06,08,34,13.40
2009,07,06,08,35,13.50
2009,07,06,08,36,13.50
2009,07,06,08,37,13.50
2009,07,06,08,38,13.60
2009,07,06,08,39,13.60
2009,07,06,08,40,13.60
2009,07,06,08,41,13.70
2009,07,06,08,42,13.70
2009,07,06,08,43,13.70
2009,07,06,08,44,13.80
2009,07,06,08,45,13.80
2009,07,06,08,46,13.80
2009,07,06,08,47,13.90
2009,07,06,08,48,13.90
2009,07,06,08,49,13.90
2009,07,06,08,50,13.90
2009,07,06,08,51,14.00
2009,07,06,08,52,14.00
2009,07,06,08,53,14.00
2009,07,06,08,54,14.00
2009,07,06,08,55,14.10
2009,07,06,08,56,14.10
2009,07,06,08,57,14.10
2009,07,06,08,58,14.10
2009,07,06,08,59,14.10
2009,07,06,09,00,14.10
2009,07,06,09,01,14.10
2009,07,06,09,02,14.10
2009,07,06,09,03,14.10
2009,07,06,09,04,14.10
2009,07,06,09,05,14.10
2009,07,06,09,06,14.10
2009,07,06,09,07,14.10
2009,07,06,09,08,14.10
2009,07,06,09,09,14.10
2009,07,06,09,10,14.10
2009,07,06,09,11,14.10
2009,07,06,09,12,14.10
2009,07,06,09,13,14.20
2009,07,06,09,14,14.20
2009,07,06,09,15,14.20
2009,07,06,09,16,14.20
2009,07,06,09,17,14.20
2009,07,06,09,18,14.10
2009,07,06,09,19,14.10
2009,07,06,09,20,14.10
2009,07,06,09,21,14.10
2009,07,06,09,22,14.10
2009,07,06,09,23,14.10
2009,07,06,09,24,14.10
2009,07,06,09,25,14.10
2009,07,06,09,26,14.10
2009,07,06,09,27,14.10
2009,07,06,09,28,14.10
2009,07,06,09,29,14.10
2009,07,06,09,30,14.10
2009,07,06,09,31,14.10
2009,07,06,09,32,14.10
2009,07,06,09,33,14.00
2009,07,06,09,34,14.00
2009,07,06,09,35,14.00
2009,07,06,09,36,13.90
2009,07,06,09,37,13.90
2009,07,06,09,38,13.90
2009,07,06,09,39,13.90
2009,07,06,09,40,13.90
2009,07,06,09,41,13.80
2009,07,06,09,42,13.80
2009,07,06,09,43,13.80
2009,07,06,09,44,13.80
2009,07,06,09,45,13.80
2009,07,06,09,46,13.80
2009,07,06,09,47,13.80
2009,07,06,09,48,13.80
2009,07,06,09,49,13.80
2009,07,06,09,50,13.80
2009,07,06,09,51,13.80
2009,07,06,09,52,13.80
2009,07,06,09,53,13.90
2009,07,06,09,54,13.90
2009,07,06,09,55,13.90
2009,07,06,09,56,13.90
2009,07,06,09,57,13.90
2009,07,06,09,58,13.90
2009,07,06,09,59,13.90
2009,07,06,10,00,13.90
2009,07,06,10,01,13.90
2009,07,06,10,02,13.90
2009,07,06,10,03,13.90
2009,07,06,10,04,13.90
2009,07,06,10,05,14.00
2009,07,06,10,06,14.00
2009,07,06,10,07,14.00
2009,07,06,10,08,14.10
2009,07,06,10,09,14.10
2009,07,06,10,10,14.10
2009,07,06,10,11,14.20
2009,07,06,10,12,14.20
2009,07,06,10,13,14.20
2009,07,06,10,14,14.20
2009,07,06,10,15,14.30
2009,07,06,10,16,14.30
2009,07,06,10,17,14.30
2009,07,06,10,18,14.30
2009,07,06,10,19,14.40
2009,07,06,10,20,14.40
2009,07,06,10,21,14.40
2009,07,06,10,22,14.40
2009,07,06,10,23,14.40
2009,07,06,10,24,14.40
2009,07,06,10,25,14.40
2009,07,06,10,26,14.30
2009,07,06,10,27,14.30
2009,07,06,10,28,14.30
2009,07,06,10,29,14.30
2009,07,06,10,30,14.30
2009,07,06,10,31,14.30
2009,07,06,10,32,14.30
2009,07,06,10,33,14.30
2009,07,06,10,34,14.30
2009,07,06,10,35,14.30
2009,07,06,10,36,14.30
2009,07,06,10,37,14.30
2009,07,06,10,38,14.30
2009,07,06,10,39,14.30
2009,07,06,10,40,14.30
2009,07,06,10,41,14.30
2009,07,06,10,42,14.30
2009,07,06,10,43,14.30
2009,07,06,10,44,14.40
2009,07,06,10,45,14.40
2009,07,06,10,46,14.40
2009,07,06,10,47,14.40
2009,07,06,10,48,14.40
2009,07,06,10,49,14.40
2009,07,06,10,50,14.40
2009,07,06,10,51,14.40
2009,07,06,10,52,14.40
2009,07,06,10,53,14.40
2009,07,06,10,54,14.40
2009,07,06,10,55,14.40
2009,07,06,10,56,14.50
2009,07,06,10,57,14.50
2009,07,06,10,58,14.50
2009,07,06,10,59,14.50
2009,07,06,11,00,14.60
2009,07,06,11,01,14.60
2009,07,06,11,02,14.60
2009,07,06,11,03,14.60
2009,07,06,11,04,14.60
2009,07,06,11,05,14.60
2009,07,06,11,06,14.50
2009,07,06,11,07,14.50
2009,07,06,11,08,14.50
2009,07,06,11,09,14.50
2009,07,06,11,10,14.60
2009,07,06,11,11,14.60
2009,07,06,11,12,14.60
2009,07,06,11,13,14.60
2009,07,06,11,14,14.60
2009,07,06,11,15,14.60
2009,07,06,11,16,14.60
2009,07,06,11,17,14.60
2009,07,06,11,18,14.60
2009,07,06,11,19,14.70
2009,07,06,11,20,14.70
2009,07,06,11,21,14.70
2009,07,06,11,22,14.80
2009,07,06,11,23,14.80
2009,07,06,11,24,14.80
2009,07,06,11,25,14.80
2009,07,06,11,26,14.90
2009,07,06,11,27,14.90
2009,07,06,11,28,15.00
2009,07,06,11,29,15.00
2009,07,06,11,30,15.00
2009,07,06,11,31,15.00
2009,07,06,11,32,15.00
2009,07,06,11,33,15.00
2009,07,06,11,34,15.00
2009,07,06,11,35,15.00
2009,07,06,11,36,15.00
2009,07,06,11,37,15.00
2009,07,06,11,38,15.00
2009,07,06,11,39,15.00
2009,07,06,11,40,15.00
2009,07,06,11,41,15.00
2009,07,06,11,42,15.00
2009,07,06,11,43,15.00
2009,07,06,11,44,15.00
2009,07,06,11,45,15.00
2009,07,06,11,46,15.00
2009,07,06,11,47,15.00
2009,07,06,11,48,15.00
2009,07,06,11,49,15.00
2009,07,06,11,50,15.00
2009,07,06,11,51,15.00
2009,07,06,11,52,15.00
2009,07,06,11,53,15.00
2009,07,06,11,54,15.00
2009,07,06,11,55,15.00
2009,07,06,11,56,15.00
2009,07,06,11,57,14.90
2009,07,06,11,58,14.90
2009,07,06,11,59,14.90
2009,07,06,12,00,14.90
2009,07,06,12,01,14.90
2009,07,06,12,02,15.00
2009,07,06,12,03,15.00
2009,07,06,12,04,15.00
2009,07,06,12,05,15.00
2009,07,06,12,06,15.00
2009,07,06,12,07,15.00
2009,07,06,12,08,14.90
2009,07,06,12,09,14.90
2009,07,06,12,10,14.90
2009,07,06,12,11,14.90
2009,07,06,12,12,14.90
2009,07,06,12,13,14.90
2009,07,06,12,14,14.90
2009,07,06,12,15,14.90
2009,07,06,12,16,14.90
2009,07,06,12,17,14.90
2009,07,06,12,18,14.90
2009,07,06,12,19,15.00
2009,07,06,12,20,15.00
2009,07,06,12,21,15.00
2009,07,06,12,22,15.00
2009,07,06,12,23,15.00
2009,07,06,12,24,15.00
2009,07,06,12,25,15.00
2009,07,06,12,26,15.00
2009,07,06,12,27,15.00
2009,07,06,12,28,15.00
2009,07,06,12,29,15.00
2009,07,06,12,30,15.00
2009,07,06,12,31,15.10
2009,07,06,12,32,15.10
2009,07,06,12,33,15.20
2009,07,06,12,34,15.20
2009,07,06,12,35,15.20
2009,07,06,12,36,15.20
2009,07,06,12,37,15.30
2009,07,06,12,38,15.30
2009,07,06,12,39,15.30
2009,07,06,12,40,15.40
2009,07,06,12,41,15.40
2009,07,06,12,42,15.50
2009,07,06,12,43,15.50
2009,07,06,12,44,15.50
2009,07,06,12,45,15.50
2009,07,06,12,46,15.50
2009,07,06,12,47,15.50
2009,07,06,12,48,15.50
2009,07,06,12,49,15.50
2009,07,06,12,50,15.60
2009,07,06,12,51,15.60
2009,07,06,12,52,15.60
2009,07,06,12,53,15.60
2009,07,06,12,54,15.60
2009,07,06,12,55,15.70
2009,07,06,12,56,15.70
2009,07,06,12,57,15.70
2009,07,06,12,58,15.80
2009,07,06,12,59,15.80
2009,07,06,13,00,15.90
2009,07,06,13,01,15.90
2009,07,06,13,02,15.90
2009,07,06,13,03,15.90
2009,07,06,13,04,16.00
2009,07,06,13,05,16.00
2009,07,06,13,06,16.10
2009,07,06,13,07,16.00
2009,07,06,13,08,16.00
2009,07,06,13,09,16.00
2009,07,06,13,10,16.00
2009,07,06,13,11,16.10
2009,07,06,13,12,16.10
2009,07,06,13,13,16.10
2009,07,06,13,14,16.10
2009,07,06,13,15,16.10
2009,07,06,13,16,16.10
2009,07,06,13,17,16.10
2009,07,06,13,18,16.00
2009,07,06,13,19,16.00
2009,07,06,13,20,16.10
2009,07,06,13,21,16.00
2009,07,06,13,22,16.00
2009,07,06,13,23,16.00
2009,07,06,13,24,16.00
2009,07,06,13,25,16.00
2009,07,06,13,26,16.00
2009,07,06,13,27,16.10
2009,07,06,13,28,16.10
2009,07,06,13,29,16.10
2009,07,06,13,30,16.10
2009,07,06,13,31,16.00
2009,07,06,13,32,16.00
2009,07,06,13,33,16.00
2009,07,06,13,34,15.90
2009,07,06,13,35,15.90
2009,07,06,13,36,16.00
2009,07,06,13,37,16.00
2009,07,06,13,38,16.00
2009,07,06,13,39,15.90
2009,07,06,13,40,15.90
2009,07,06,13,41,16.00
2009,07,06,13,42,16.00
2009,07,06,13,43,16.10
2009,07,06,13,44,16.20
2009,07,06,13,45,16.20
2009,07,06,13,46,16.20
2009,07,06,13,47,16.30
2009,07,06,13,48,16.30
2009,07,06,13,49,16.30
2009,07,06,13,50,16.30
2009,07,06,13,51,16.40
2009,07,06,13,52,16.40
2009,07,06,13,53,16.40
2009,07,06,13,54,16.30
2009,07,06,13,55,16.30
2009,07,06,13,56,16.30
2009,07,06,13,57,16.30
2009,07,06,13,58,16.30
2009,07,06,13,59,16.30
2009,07,06,14,00,16.30
2009,07,06,14,01,16.30
2009,07,06,14,02,16.40
2009,07,06,14,03,16.30
2009,07,06,14,04,16.30
2009,07,06,14,05,16.30
2009,07,06,14,06,16.30
2009,07,06,14,07,16.30
2009,07,06,14,08,16.20
2009,07,06,14,09,16.20
2009,07,06,14,10,16.20
2009,07,06,14,11,16.20
2009,07,06,14,12,16.20
2009,07,06,14,13,16.20
2009,07,06,14,14,16.10
2009,07,06,14,15,16.10
2009,07,06,14,16,16.10
2009,07,06,14,17,16.10
2009,07,06,14,18,16.10
2009,07,06,14,19,16.10
2009,07,06,14,20,16.10
2009,07,06,14,21,16.10
2009,07,06,14,22,16.20
2009,07,06,14,23,16.20
2009,07,06,14,24,16.10
2009,07,06,14,25,16.10
2009,07,06,14,26,16.10
2009,07,06,14,27,16.10
2009,07,06,14,28,16.20
2009,07,06,14,29,16.20
2009,07,06,14,30,16.20
2009,07,06,14,31,16.30
2009,07,06,14,32,16.30
2009,07,06,14,33,16.30
2009,07,06,14,34,16.30
2009,07,06,14,35,16.30
2009,07,06,14,36,16.30
2009,07,06,14,37,16.30
2009,07,06,14,38,16.30
2009,07,06,14,39,16.30
2009,07,06,14,40,16.20
2009,07,06,14,41,16.20
2009,07,06,14,42,16.20
2009,07,06,14,43,16.20
2009,07,06,14,44,16.20
2009,07,06,14,45,16.20
2009,07,06,14,46,16.20
2009,07,06,14,47,16.20
2009,07,06,14,48,16.10
2009,07,06,14,49,16.10
2009,07,06,14,50,16.10
2009,07,06,14,51,16.10
2009,07,06,14,52,16.00
2009,07,06,14,53,16.00
2009,07,06,14,54,16.00
2009,07,06,14,55,16.10
2009,07,06,14,56,16.10
2009,07,06,14,57,16.10
2009,07,06,14,58,16.10
2009,07,06,14,59,16.10
2009,07,06,15,00,16.10
2009,07,06,15,01,16.10
2009,07,06,15,02,16.10
2009,07,06,15,03,16.00
2009,07,06,15,04,16.00
2009,07,06,15,05,16.00
2009,07,06,15,06,16.00
2009,07,06,15,07,16.00
2009,07,06,15,08,15.90
2009,07,06,15,09,15.80
2009,07,06,15,10,15.80
2009,07,06,15,11,15.80
2009,07,06,15,12,15.90
2009,07,06,15,13,15.90
2009,07,06,15,14,15.90
2009,07,06,15,15,16.00
2009,07,06,15,16,16.00
2009,07,06,15,17,16.10
2009,07,06,15,18,16.10
2009,07,06,15,19,16.10
2009,07,06,15,20,16.20
2009,07,06,15,21,16.20
2009,07,06,15,22,16.20
2009,07,06,15,23,16.20
2009,07,06,15,24,16.20
2009,07,06,15,25,16.20
2009,07,06,15,26,16.20
2009,07,06,15,27,16.20
2009,07,06,15,28,16.20
2009,07,06,15,29,16.20
2009,07,06,15,30,16.20
2009,07,06,15,31,16.20
2009,07,06,15,32,16.20
2009,07,06,15,33,16.20
2009,07,06,15,34,16.20
2009,07,06,15,35,16.20
2009,07,06,15,36,16.10
2009,07,06,15,37,16.10
2009,07,06,15,38,16.00
2009,07,06,15,39,15.90
2009,07,06,15,40,15.90
2009,07,06,15,41,15.90
2009,07,06,15,42,16.00
2009,07,06,15,43,16.00
2009,07,06,15,44,16.10
2009,07,06,15,45,16.10
2009,07,06,15,46,16.10
2009,07,06,15,47,16.10
2009,07,06,15,48,16.10
2009,07,06,15,49,16.10
2009,07,06,15,50,16.10
2009,07,06,15,51,16.10
2009,07,06,15,52,16.10
2009,07,06,15,53,16.10
2009,07,06,15,54,16.10
2009,07,06,15,55,16.20
2009,07,06,15,56,16.20
2009,07,06,15,57,16.20
2009,07,06,15,58,16.20
2009,07,06,15,59,16.20
2009,07,06,16,00,16.20
2009,07,06,16,01,16.30
2009,07,06,16,02,16.30
2009,07,06,16,03,16.30
2009,07,06,16,04,16.30
2009,07,06,16,05,16.20
2009,07,06,16,06,16.30
2009,07,06,16,07,16.40
2009,07,06,16,08,16.50
2009,07,06,16,09,16.50
2009,07,06,16,10,16.70
2009,07,06,16,11,16.70
2009,07,06,16,12,16.80
2009,07,06,16,13,16.80
2009,07,06,16,14,16.90
2009,07,06,16,15,17.00
2009,07,06,16,16,17.10
2009,07,06,16,17,17.20
2009,07,06,16,18,17.30
2009,07,06,16,19,17.40
2009,07,06,16,20,17.50
2009,07,06,16,21,17.60
2009,07,06,16,22,17.60
2009,07,06,16,23,17.40
2009,07,06,16,24,17.40
2009,07,06,16,25,17.40
2009,07,06,16,26,17.40
2009,07,06,16,27,17.40
2009,07,06,16,28,17.50
2009,07,06,16,29,17.40
2009,07,06,16,30,17.20
2009,07,06,16,31,17.10
2009,07,06,16,32,17.10
2009,07,06,16,33,17.20
2009,07,06,16,34,17.20
2009,07,06,16,35,17.20
2009,07,06,16,36,17.20
2009,07,06,16,37,17.30
2009,07,06,16,38,17.30
2009,07,06,16,39,17.20
2009,07,06,16,40,17.20
2009,07,06,16,41,17.20
2009,07,06,16,42,17.30
2009,07,06,16,43,17.30
2009,07,06,16,44,17.20
2009,07,06,16,45,17.20
2009,07,06,16,46,17.20
2009,07,06,16,47,17.10
2009,07,06,16,48,17.20
2009,07,06,16,49,17.10
2009,07,06,16,50,17.00
2009,07,06,16,51,16.90
2009,07,06,16,52,16.80
2009,07,06,16,53,16.70
2009,07,06,16,54,16.50
2009,07,06,16,55,16.40
2009,07,06,16,56,16.30
2009,07,06,16,57,16.30
2009,07,06,16,58,16.40
2009,07,06,16,59,16.40
2009,07,06,17,00,16.50
2009,07,06,17,01,16.60
2009,07,06,17,02,16.60
2009,07,06,17,03,16.70
2009,07,06,17,04,16.70
2009,07,06,17,05,16.70
2009,07,06,17,06,16.70
2009,07,06,17,07,16.70
2009,07,06,17,08,16.70
2009,07,06,17,09,16.70
2009,07,06,17,10,16.70
2009,07,06,17,11,16.80
2009,07,06,17,12,16.80
2009,07,06,17,13,16.90
2009,07,06,17,14,17.00
2009,07,06,17,15,16.90
2009,07,06,17,16,16.90
2009,07,06,17,17,16.90
2009,07,06,17,18,16.90
2009,07,06,17,19,16.80
2009,07,06,17,20,16.80
2009,07,06,17,21,16.80
2009,07,06,17,22,16.90
2009,07,06,17,23,16.90
2009,07,06,17,24,16.90
2009,07,06,17,25,16.80
2009,07,06,17,26,16.80
2009,07,06,17,27,16.80
2009,07,06,17,28,16.80
2009,07,06,17,29,16.80
2009,07,06,17,30,16.70
2009,07,06,17,31,16.70
2009,07,06,17,32,16.70
2009,07,06,17,33,16.70
2009,07,06,17,34,16.70
2009,07,06,17,35,16.70
2009,07,06,17,36,16.70
2009,07,06,17,37,16.70